Location: Mentone
(34.5413°N, 85.5351°W)
Time: 19:10:48
(UTC-05:00)

Cosmos 2150 Rocket - Visible Passes

Search period start: 28 June 2017 00:00
Search period end: 08 July 2017 00:00
Orbit: 749 x 808 km, 74.0° (Epoch: 28 June)

Date Brightness Start Highest point End Pass type
(mag) Time Alt. Az. Time Alt. Az. Time Alt. Az.
28 Jun 4.4 01:46:43 61° N 01:46:43 61° N 01:51:18 10° NNE visible
29 Jun 4.9 01:13:27 47° NE 01:13:27 47° NE 01:17:25 10° NNE visible
29 Jun 6.1 02:53:56 14° WNW 02:54:47 14° WNW 02:57:41 10° NNW visible
30 Jun 5.5 00:40:09 30° ENE 00:40:09 30° ENE 00:43:19 10° NE visible
30 Jun 5.7 02:20:37 23° WNW 02:20:40 23° WNW 02:24:56 10° NNW visible
01 Jul 6.1 00:06:49 18° ENE 00:06:49 18° ENE 00:08:53 10° NE visible
01 Jul 5.2 01:47:18 35° NW 01:47:18 35° NW 01:51:40 10° N visible
01 Jul 6.5 23:33:28 11° ENE 23:33:28 11° ENE 23:33:46 10° ENE visible
02 Jul 4.9 01:13:56 48° NNW 01:13:56 48° NNW 01:18:07 10° N visible
03 Jul 4.9 00:40:33 47° NNE 00:40:33 47° NNE 00:44:22 10° NNE visible
03 Jul 6.5 02:21:01 11° WNW 02:21:51 11° WNW 02:23:23 10° NW visible
04 Jul 5.3 00:07:08 34° NE 00:07:08 34° NE 00:10:23 10° NNE visible
04 Jul 6.1 01:47:37 18° WNW 01:47:42 18° WNW 01:51:22 10° NNW visible
04 Jul 5.8 23:33:42 22° ENE 23:33:42 22° ENE 23:36:08 10° NE visible
05 Jul 5.6 01:14:10 28° NW 01:14:10 28° NW 01:18:18 10° N visible
05 Jul 6.2 23:00:13 14° ENE 23:00:13 14° ENE 23:01:27 10° NE visible
06 Jul 5.1 00:40:41 41° NW 00:40:41 41° NW 00:44:53 10° N visible
07 Jul 4.8 00:07:10 51° N 00:07:10 51° N 00:11:14 10° NNE visible
07 Jul 4.9 23:33:36 44° NE 23:33:36 44° NE 23:37:22 10° NNE visible
